Appleton, MN

10:55 PM CDT on September 25, 2017 (GMT -0500)
Appleton Municipal

Weather History for KAQP - November, 2012

Change the Weather History Date:

Sunday, November 18, 2012

  Actual Average Record
Temperature  
Mean Temperature 48 °F -  
Max Temperature 62 °F 35 °F 62 °F (2012)
Min Temperature 35 °F 19 °F 3 °F (1996)
Degree Days  
Heating Degree Days 16    
Moisture  
Dew Point 34 °F    
Average Humidity 62    
Maximum Humidity 87    
Minimum Humidity 37    
Precipitation  
Precipitation 0.00 in - - ()
Sea Level Pressure  
Sea Level Pressure 29.99 in    
Wind  
Wind Speed 9 mph (SSE)    
Max Wind Speed 13 mph    
Max Gust Speed 18 mph    
Visibility 10 miles    
Events      
Averages and records for this station are not official NWS values.
T = Trace of Precipitation, MM = Missing Value Source: NWS Daily Summary

Daily Weather History Graph

Daily Weather History Graph

Search for Another Location

Airport or City:

Trip Planner

Search our weather history database for the weather conditions in past years. The results will help you decide how hot, cold, wet, or windy it might be!

Date:

Astronomy

Nov. 18, 2012 Rise Set
Actual Time 7:27 AM CST 4:51 PM CST
Civil Twilight 6:54 AM CST 5:23 PM CST
Nautical Twilight 6:18 AM CST 5:59 PM CST
Astronomical Twilight 5:43 AM CST 6:34 PM CST
Moon 11:51 AM CST (11/18) 10:16 PM CST (11/18)
Length of Visible Light 10h 28m
Length of Day
9h 24m
Waxing Crescent, 30% of the Moon is Illuminated
Nov 18
Waxing Crescent
Nov 20
First Quarter
Nov 28
Full
Dec 6
Last Quarter
Dec 13
New

Hourly Weather History & Observations

Time (CST) Temp. Windchill Dew Point Humidity Pressure Visibility Wind Dir Wind Speed Gust Speed Precip Events Conditions
12:13 AM 44.6 °F 39.2 °F 33.8 °F 66% 30.03 in 10.0 mi SSE 10.4 mph - N/A   Clear
12:33 AM 44.6 °F 39.7 °F 33.8 °F 66% 30.03 in 10.0 mi SSE 9.2 mph - N/A   Clear
12:54 AM 44.6 °F 39.2 °F 33.8 °F 66% 30.03 in 10.0 mi SSE 10.4 mph - N/A   Clear
1:14 AM 44.6 °F 39.7 °F 33.8 °F 66% 30.02 in 10.0 mi SSE 9.2 mph - N/A   Clear
1:34 AM 44.6 °F 39.2 °F 33.8 °F 66% 30.02 in 10.0 mi SSE 10.4 mph - N/A   Clear
1:53 AM 44.6 °F 39.7 °F 33.8 °F 66% 30.02 in 10.0 mi SSE 9.2 mph - N/A   Clear
2:13 AM 42.8 °F 37.0 °F 33.8 °F 70% 30.02 in 10.0 mi SSE 10.4 mph - N/A   Clear
2:33 AM 42.8 °F 36.2 °F 33.8 °F 70% 30.02 in 10.0 mi SSE 12.7 mph - N/A   Clear
2:53 AM 42.8 °F 36.2 °F 33.8 °F 70% 30.02 in 10.0 mi SSE 12.7 mph - N/A   Clear
3:14 AM 42.8 °F 37.5 °F 33.8 °F 70% 30.02 in 10.0 mi SSE 9.2 mph 17.3 mph N/A   Clear
3:33 AM 42.8 °F 37.5 °F 33.8 °F 70% 30.02 in 10.0 mi SSE 9.2 mph - N/A   Clear
3:53 AM 42.8 °F 38.0 °F 33.8 °F 70% 30.02 in 10.0 mi SSE 8.1 mph - N/A   Clear
4:13 AM 41.0 °F 35.2 °F 33.8 °F 76% 30.01 in 10.0 mi SSE 9.2 mph - N/A   Clear
4:33 AM 41.0 °F 35.8 °F 33.8 °F 76% 30.01 in 10.0 mi SSE 8.1 mph - N/A   Clear
4:53 AM 37.4 °F 32.8 °F 32.0 °F 81% 30.02 in 10.0 mi SE 5.8 mph - N/A   Clear
5:14 AM 37.4 °F 32.1 °F 33.8 °F 87% 30.01 in 10.0 mi SSE 6.9 mph - N/A   Clear
5:33 AM 39.2 °F 35.0 °F 33.8 °F 81% 30.01 in 10.0 mi SSE 5.8 mph - N/A   Clear
5:53 AM 37.4 °F 32.1 °F 32.0 °F 81% 30.01 in 10.0 mi SE 6.9 mph - N/A   Clear
6:13 AM 37.4 °F 31.4 °F 32.0 °F 81% 30.01 in 10.0 mi SE 8.1 mph - N/A   Clear
6:34 AM 35.6 °F 29.9 °F 30.2 °F 81% 30.00 in 10.0 mi SSE 6.9 mph - N/A   Clear
6:53 AM 35.6 °F 30.7 °F 32.0 °F 87% 30.01 in 10.0 mi SE 5.8 mph - N/A   Clear
7:13 AM 37.4 °F 32.1 °F 32.0 °F 81% 30.00 in 10.0 mi SE 6.9 mph - N/A   Clear
7:34 AM 37.4 °F 32.1 °F 32.0 °F 81% 30.01 in 10.0 mi SE 6.9 mph - N/A   Clear
7:53 AM 37.4 °F 33.8 °F 32.0 °F 81% 30.01 in 10.0 mi SE 4.6 mph - N/A   Clear
8:14 AM 37.4 °F 32.1 °F 32.0 °F 81% 30.01 in 10.0 mi SE 6.9 mph - N/A   Clear
8:33 AM 39.2 °F 34.2 °F 33.8 °F 81% 30.01 in 10.0 mi SE 6.9 mph - N/A   Clear
8:53 AM 41.0 °F 37.1 °F 33.8 °F 76% 30.01 in 10.0 mi SE 5.8 mph - N/A   Clear
9:13 AM 42.8 °F 37.5 °F 33.8 °F 70% 30.01 in 10.0 mi SSE 9.2 mph - N/A   Clear
9:33 AM 44.6 °F 39.7 °F 33.8 °F 66% 30.01 in 10.0 mi South 9.2 mph - N/A   Clear
9:53 AM 46.4 °F 42.4 °F 33.8 °F 62% 30.01 in 10.0 mi South 8.1 mph - N/A   Clear
10:13 AM 46.4 °F 42.4 °F 33.8 °F 62% 30.01 in 10.0 mi South 8.1 mph - N/A   Clear
10:33 AM 48.2 °F - 33.8 °F 58% 30.01 in 10.0 mi South 9.2 mph - N/A   Clear
10:54 AM 48.2 °F - 33.8 °F 58% 30.01 in 10.0 mi South 10.4 mph - N/A   Clear
11:13 AM 51.8 °F - 33.8 °F 50% 30.00 in 10.0 mi South 6.9 mph - N/A   Clear
11:33 AM 51.8 °F - 33.8 °F 50% 30.00 in 10.0 mi South 9.2 mph - N/A   Clear
11:53 AM 53.6 °F - 35.6 °F 51% 29.99 in 10.0 mi South 9.2 mph - N/A   Clear
12:13 PM 55.4 °F - 33.8 °F 44% 29.99 in 10.0 mi SE 6.9 mph - N/A   Clear
12:33 PM 55.4 °F - 33.8 °F 44% 29.98 in 10.0 mi SE 8.1 mph - N/A   Clear
12:53 PM 57.2 °F - 33.8 °F 41% 29.97 in 7.0 mi SSE 9.2 mph - N/A   Clear
1:13 PM 59.0 °F - 35.6 °F 42% 29.97 in 7.0 mi SE 8.1 mph - N/A   Clear
1:33 PM 59.0 °F - 35.6 °F 42% 29.96 in 10.0 mi SSE 6.9 mph - N/A   Clear
1:53 PM 60.8 °F - 35.6 °F 39% 29.95 in 10.0 mi SSE 10.4 mph - N/A   Clear
2:13 PM 60.8 °F - 35.6 °F 39% 29.95 in 7.0 mi SSE 11.5 mph 16.1 mph N/A   Clear
2:34 PM 62.6 °F - 35.6 °F 37% 29.94 in 10.0 mi SSE 12.7 mph - N/A   Clear
2:53 PM 60.8 °F - 35.6 °F 39% 29.94 in 10.0 mi SSE 10.4 mph - N/A   Clear
3:14 PM 59.0 °F - 35.6 °F 42% 29.94 in 10.0 mi SE 9.2 mph - N/A   Clear
3:33 PM 60.8 °F - 35.6 °F 39% 29.94 in 10.0 mi SSE 12.7 mph 18.4 mph N/A   Scattered Clouds
3:54 PM 60.8 °F - 35.6 °F 39% 29.94 in 10.0 mi SSE 10.4 mph - N/A   Scattered Clouds
4:13 PM 59.0 °F - 35.6 °F 42% 29.95 in 10.0 mi SSE 9.2 mph - N/A   Clear
4:34 PM 57.2 °F - 37.4 °F 48% 29.95 in 10.0 mi SSE 11.5 mph 16.1 mph N/A   Clear
4:53 PM 55.4 °F - 37.4 °F 51% 29.95 in 10.0 mi SE 9.2 mph - N/A   Clear
5:13 PM 55.4 °F - 37.4 °F 51% 29.95 in 10.0 mi SE 10.4 mph - N/A   Clear
5:33 PM 53.6 °F - 37.4 °F 54% 29.95 in 10.0 mi SE 10.4 mph - N/A   Clear
5:53 PM 53.6 °F - 37.4 °F 54% 29.96 in 10.0 mi SE 10.4 mph - N/A   Clear
6:13 PM 53.6 °F - 35.6 °F 51% 29.97 in 10.0 mi SE 9.2 mph 16.1 mph N/A   Clear
6:33 PM 51.8 °F - 35.6 °F 54% 29.98 in 10.0 mi SE 9.2 mph - N/A   Clear
6:53 PM 51.8 °F - 35.6 °F 54% 29.98 in 10.0 mi SE 6.9 mph - N/A   Clear
7:13 PM 48.2 °F - 35.6 °F 62% 29.98 in 10.0 mi SE 8.1 mph - N/A   Clear
7:33 PM 48.2 °F - 35.6 °F 62% 29.98 in 10.0 mi SE 6.9 mph - N/A   Clear
7:53 PM 48.2 °F - 35.6 °F 62% 29.97 in 10.0 mi SE 8.1 mph - N/A   Clear
8:14 PM 48.2 °F - 35.6 °F 62% 29.96 in 10.0 mi SE 6.9 mph - N/A   Clear
8:34 PM 48.2 °F - 35.6 °F 62% 29.97 in 10.0 mi SE 9.2 mph - N/A   Clear
8:53 PM 48.2 °F - 35.6 °F 62% 29.97 in 10.0 mi SE 8.1 mph - N/A   Clear
9:13 PM 48.2 °F - 35.6 °F 62% 29.96 in 10.0 mi SSE 9.2 mph - N/A   Clear
9:33 PM 48.2 °F - 35.6 °F 62% 29.97 in 10.0 mi SE 9.2 mph - N/A   Clear
9:53 PM 48.2 °F - 35.6 °F 62% 29.97 in 10.0 mi SSE 6.9 mph - N/A   Clear
10:33 PM 48.2 °F - 35.6 °F 62% 29.96 in 10.0 mi SE 9.2 mph - N/A   Clear
10:53 PM 46.4 °F 42.4 °F 35.6 °F 66% 29.96 in 10.0 mi SE 8.1 mph - N/A   Clear
11:13 PM 46.4 °F 42.9 °F 35.6 °F 66% 29.95 in 10.0 mi SE 6.9 mph - N/A   Clear
11:54 PM 46.4 °F 42.4 °F 35.6 °F 66% 29.96 in 10.0 mi SE 8.1 mph - N/A   Clear